Location: Piotrkow Trybunalski
(51.4000°N, 19.6830°E)
Time: 16:24:41
(UTC+01:00)

Explorer 7 - Pass Details

Date: 28 January 2023
Orbit: 478 x 657 km, 50.3° (Epoch: 19 March)

Event Time Altitude Azimuth Distance (km) Brightness Sun altitude
Rises 18:58:16 0° 283° (WNW) 2,921 11.8 -24.0°
Reaches altitude 10° 19:00:40 10° 276° (W) 2,033 10.8 -24.4°
Maximum altitude 19:05:02 39° 208° (SSW) 981 8.2 -25.0°
Enters shadow 19:05:50 36° 183° (S) 1,038 8.1 -25.2°
